Change the Weather History Date:

Wednesday, December 26, 2012

  Actual Average Record
Temperature  
Mean Temperature 46 °F 51 °F  
Max Temperature 54 °F 61 °F 78 °F (1964)
Min Temperature 37 °F 41 °F 14 °F (1983)
Degree Days  
Heating Degree Days 19 15  
Month to date heating degree days 191 330  
Since 1 July heating degree days 504 588  
Cooling Degree Days 0 0  
Month to date cooling degree days 15 8  
Year to date cooling degree days 2712 2511  
Moisture  
Dew Point 32 °F    
Average Humidity 69    
Maximum Humidity 83    
Minimum Humidity 54    
Precipitation  
Precipitation 0.00 in 0.17 in 2.14 in (1939)
Month to date precipitation 2.45 4.22  
Year to date precipitation 68.07 65.31  
Snow  
Snow 0.00 in 0.00 in 0.00 in (2001)
Month to date snowfall 0.0 0.0  
Since 1 July snowfall 0.0 0.0  
Snow Depth 0.00 in    
Sea Level Pressure  
Sea Level Pressure 29.98 in    
Wind  
Wind Speed 11 mph (NW)    
Max Wind Speed 23 mph    
Max Gust Speed 36 mph    
Visibility 9 miles    
Events      
T = Trace of Precipitation, MM = Missing Value Source: NWS Daily Summary

Daily Weather History Graph

Daily Weather History Graph

Search for Another Location

Airport or City:

Trip Planner

Search our weather history database for the weather conditions in past years. The results will help you decide how hot, cold, wet, or windy it might be!

Date:

Astronomy

Dec. 26, 2012 Rise Set
Actual Time 6:48 AM CST 4:59 PM CST
Civil Twilight 6:22 AM CST 5:25 PM CST
Nautical Twilight 5:52 AM CST 5:55 PM CST
Astronomical Twilight 5:22 AM CST 6:25 PM CST
Moon 3:50 PM CST (12/26) 5:13 AM CST (12/26)
Length of Visible Light 11h 03m
Length of Day
10h 10m
Waxing Gibbous, 97% of the Moon is Illuminated
Dec 26
Waxing Gibbous
Dec 28
Full
Jan 4
Last Quarter
Jan 11
New
Jan 18
First Quarter

Hourly Weather History & Observations

Time (CST) Temp. Windchill Dew Point Humidity Pressure Visibility Wind Dir Wind Speed Gust Speed Precip Events Conditions
12:56 AM 52.0 °F - 43.0 °F 71% 29.70 in 10.0 mi WSW 11.5 mph 18.4 mph N/A   Partly Cloudy
1:56 AM 51.1 °F - 43.0 °F 74% 29.71 in 10.0 mi WSW 11.5 mph 21.9 mph N/A   Scattered Clouds
2:56 AM 50.0 °F - 42.1 °F 74% 29.73 in 10.0 mi West 13.8 mph 24.2 mph N/A   Scattered Clouds
3:56 AM 44.1 °F 37.7 °F 34.0 °F 68% 29.77 in 10.0 mi West 12.7 mph 27.6 mph N/A   Scattered Clouds
4:03 AM 44.6 °F 38.8 °F 35.6 °F 71% 29.78 in 10.0 mi West 11.5 mph 23.0 mph N/A   Mostly Cloudy
4:27 AM 42.8 °F 35.8 °F 30.2 °F 61% 29.79 in 10.0 mi West 13.8 mph 29.9 mph N/A   Scattered Clouds
4:56 AM 41.0 °F 33.1 °F 30.0 °F 65% 29.81 in 10.0 mi WNW 15.0 mph 24.2 mph N/A   Scattered Clouds
5:47 AM 39.2 °F 30.5 °F 30.2 °F 70% 29.86 in 7.0 mi West 16.1 mph 24.2 mph N/A   Mostly Cloudy
5:56 AM 39.0 °F 32.3 °F 30.0 °F 70% 29.86 in 7.0 mi West 10.4 mph 23.0 mph N/A   Overcast
6:56 AM 39.0 °F 30.3 °F 30.0 °F 70% 29.90 in 7.0 mi WNW 16.1 mph 26.5 mph N/A   Overcast
7:56 AM 39.9 °F 32.9 °F 30.0 °F 68% 29.94 in 7.0 mi WNW 11.5 mph 21.9 mph N/A   Overcast
8:56 AM 41.0 °F 34.3 °F 30.0 °F 65% 29.97 in 7.0 mi WNW 11.5 mph 25.3 mph N/A   Overcast
9:56 AM 43.0 °F 36.4 °F 30.0 °F 60% 30.01 in 7.0 mi NW 12.7 mph 23.0 mph N/A   Mostly Cloudy
10:56 AM 44.1 °F 36.5 °F 30.9 °F 60% 30.02 in 7.0 mi NW 17.3 mph 25.3 mph N/A   Mostly Cloudy
11:18 AM 44.6 °F 38.4 °F 30.2 °F 57% 30.01 in 10.0 mi NW 12.7 mph 25.3 mph N/A   Mostly Cloudy
11:56 AM 45.0 °F 38.2 °F 30.9 °F 58% 30.00 in 10.0 mi WNW 15.0 mph 25.3 mph N/A   Mostly Cloudy
12:56 PM 46.9 °F - 32.0 °F 56% 30.00 in 10.0 mi NW 13.8 mph 25.3 mph N/A   Scattered Clouds
1:56 PM 48.0 °F - 32.0 °F 54% 29.99 in 10.0 mi WNW 12.7 mph - N/A   Scattered Clouds
2:56 PM 48.9 °F - 32.0 °F 52% 30.00 in 10.0 mi NW 13.8 mph 19.6 mph N/A   Mostly Cloudy
3:56 PM 46.9 °F - 32.0 °F 56% 30.03 in 10.0 mi NNW 11.5 mph 18.4 mph N/A   Mostly Cloudy
4:56 PM 44.1 °F 39.0 °F 32.0 °F 63% 30.05 in 10.0 mi NW 9.2 mph 17.3 mph N/A   Mostly Cloudy
5:56 PM 41.0 °F 36.4 °F 32.0 °F 70% 30.10 in 10.0 mi NW 6.9 mph - N/A   Mostly Cloudy
6:56 PM 39.0 °F 34.8 °F 32.0 °F 76% 30.12 in 10.0 mi NW 5.8 mph - N/A   Mostly Cloudy
7:37 PM 39.2 °F 32.0 °F 32.0 °F 75% 30.13 in 10.0 mi NNW 11.5 mph 19.6 mph N/A   Mostly Cloudy
7:56 PM 39.0 °F 32.8 °F 32.0 °F 76% 30.13 in 10.0 mi NNW 9.2 mph - N/A   Mostly Cloudy
8:56 PM 39.0 °F 33.4 °F 30.9 °F 73% 30.14 in 10.0 mi NNW 8.1 mph - N/A   Mostly Cloudy
9:34 PM 37.4 °F 29.3 °F 30.2 °F 75% 30.14 in 10.0 mi North 12.7 mph - N/A   Scattered Clouds
9:51 PM 37.4 °F 31.4 °F 30.2 °F 75% 30.16 in 10.0 mi NNW 8.1 mph - N/A   Mostly Cloudy
9:56 PM 37.0 °F 31.6 °F 30.0 °F 76% 30.16 in 10.0 mi NW 6.9 mph - N/A   Mostly Cloudy
10:56 PM 37.9 °F 32.7 °F 30.0 °F 73% 30.16 in 10.0 mi NNW 6.9 mph 16.1 mph N/A   Overcast
11:56 PM 37.0 °F 31.0 °F 30.0 °F 76% 30.15 in 10.0 mi North 8.1 mph - N/A   Mostly Cloudy